This is the latest recevied weather packets stored in our database for station/object KC8UZG. If no packets are shown the sender has not sent any weather packets the latest 10 day(s).
| Time | Temp. | Humidity | Pressure | Rain* | Wind** | Luminosity | Snow |
|---|---|---|---|---|---|---|---|
| 1777605335 | 6.67° C | 93% | - | 0 mm | - | 0 W/m² | - |
| 1777604741 | 6.67° C | 93% | - | 0 mm | - | 0 W/m² | - |
| 1777604120 | 6.67° C | 93% | - | 0 mm | - | 0 W/m² | - |
| 1777603526 | 6.67° C | 93% | - | 0 mm | - | 0 W/m² | - |
| 1777602932 | 6.67° C | 92% | - | 0 mm | - | 0 W/m² | - |
| 1777602338 | 6.67° C | 90% | - | 0 mm | - | 0 W/m² | - |
| 1777601717 | 6.67° C | 87% | - | 0 mm | - | 0 W/m² | - |
| 1777601123 | 7.22° C | 87% | 1014.6 hPa | 0 mm | - | 0 W/m² | - |
| 1777600529 | 7.78° C | 83% | 1014.4 hPa | 0 mm | - | 0 W/m² | - |
| 1777599935 | 8.33° C | 83% | 1014.3 hPa | 0 mm | - | 0 W/m² | - |
| 1777599341 | 8.33° C | 81% | - | 0 mm | - | 0 W/m² | - |
| 1777598720 | 8.33° C | 80% | 1014.3 hPa | 0 mm | - | 0 W/m² | - |
| 1777598126 | 8.89° C | 78% | 1014.3 hPa | 0 mm | - | 0 W/m² | - |
| 1777597532 | 9.44° C | 77% | 1014.3 hPa | 0 mm | - | 0 W/m² | - |
| 1777596938 | 9.44° C | 73% | 1014.2 hPa | 0 mm | - | 0 W/m² | - |
| 1777596317 | 10° C | 71% | 1013.9 hPa | 0 mm | - | 0 W/m² | - |
| 1777595722 | 10.56° C | 69% | 1013.9 hPa | 0 mm | - | 0 W/m² | - |
| 1777595129 | 11.11° C | 65% | 1014.1 hPa | 0 mm | - | 0 W/m² | - |
| 1777594535 | 11.11° C | 63% | 1014 hPa | 0 mm | - | 1 W/m² | - |
| 1777593941 | 11.67° C | 63% | 1013.9 hPa | 0 mm | - | 5 W/m² | - |
| 1777593320 | 12.22° C | 60% | 1013.9 hPa | 0 mm | - | 13 W/m² | - |
| 1777592725 | 12.78° C | 55% | 1013.9 hPa | 0 mm | - | 18 W/m² | - |
| 1777592131 | 13.33° C | 56% | 1013.9 hPa | 0 mm | - | 29 W/m² | - |
| 1777591537 | 13.33° C | 56% | 1014.2 hPa | 0 mm | - | 70 W/m² | - |
| 1777590916 | 12.78° C | 58% | 1014.2 hPa | 0 mm | - | 40 W/m² | - |
* Rain latest hour (hover to see other rain measurements)
** Current wind speed in m/s (hover to see current wind gust speed)